Temperature
10 11 11 10 10 11 11 11 11 11 10 10 10 10 11 11 11 12 12 12 12 13 14 15 15 16 17 17 17 17 17 17 17 17 17 17 17 17 17 16 16 16 16 15
11 11 12 11 10 10 10 10 10 11 10 10 10 10 11 11 11 11 11 12 12 13 14 14 15 15 16 16 16 16 16 16 16 16 16 16 16 16 16 16 16 16 16 15
10 11 11 9 9 10 10 10 9 9 9 10 10 10 10 10 11 11 12 12 12 13 13 13 14 14 15 15 15 15 15 15 15 15 15 15 16 16 16 16 16 16 15 15
9 10 10 9 10 10 10 10 9 9 10 10 9 10 12 11 11 12 12 13 13 13 13 13 13 13 13 14 14 14 14 14 14 14 15 15 15 15 15 15 15 15 15 15
8 9 9 10 10 10 9 10 10 9 9 9 10 12 12 12 12 13 13 13 13 13 13 13 13 13 13 13 13 13 13 13 13 13 13 14 14 14 14 14 14 14 14 14
8 9 9 10 10 10 9 10 10 9 9 9 9 9 11 12 13 14 14 14 13 13 13 13 13 13 13 12 12 12 12 12 12 12 12 12 12 12 12 12 12 12 13 13
7 8 8 10 10 10 10 10 10 10 10 9 9 9 11 12 13 14 14 14 14 14 13 13 13 13 13 12 12 12 12 12 11 11 11 11 11 12 11 11 12 12 12 12
7 8 8 10 10 9 9 11 10 10 10 10 11 12 12 13 14 14 14 14 14 14 14 14 13 13 13 13 12 12 12 12 11 11 11 11 11 11 11 11 11 11 12 12
7 8 10 11 11 11 11 11 11 11 11 11 11 12 13 14 14 15 15 15 14 14 14 14 14 14 13 13 12 12 12 11 11 11 11 11 11 11 11 11 11 11 11 11
8 8 10 11 11 11 11 11 11 11 11 11 11 12 13 14 14 15 15 15 15 15 15 14 14 14 13 13 12 12 12 11 11 11 11 11 11 11 11 11 11 11 11 11
8 9 10 11 11 11 11 11 11 11 11 11 12 12 13 13 14 14 15 15 15 15 15 15 14 14 14 13 13 12 12 11 11 11 11 11 11 11 11 10 10 11 11 11
8 10 10 11 12 11 11 11 11 11 11 11 11 12 12 13 14 14 15 15 15 15 15 15 15 15 14 14 13 12 12 12 11 11 11 11 11 10 10 10 10 10 10 10
13 13 12 12 12 11 11 11 11 11 11 11 12 12 12 13 14 14 15 15 16 16 16 16 15 15 15 14 13 13 12 12 11 11 11 11 11 10 10 10 9 10 10 10
13 12 12 12 12 12 11 11 11 11 11 11 11 12 12 13 14 15 15 15 16 16 16 16 16 15 15 14 14 13 12 12 11 11 11 11 11 10 10 10 10 9 9 9
13 13 13 12 12 11 11 11 11 11 11 12 12 12 12 13 14 15 15 16 16 16 16 16 16 16 15 15 14 13 13 12 11 11 11 11 11 10 10 10 10 9 9 9
13 12 12 12 12 11 11 11 11 11 11 12 12 12 12 13 13 14 15 16 16 17 16 16 16 16 16 15 15 14 13 12 12 11 11 11 11 10 10 10 10 10 9 9
12 12 12 12 11 11 11 11 11 11 11 12 12 12 12 12 13 14 15 16 16 16 17 16 16 16 16 15 15 14 13 12 12 11 11 11 11 10 10 10 10 10 9 9
14 14 13 13 12 11 11 11 11 11 11 11 12 12 12 12 13 14 15 16 16 16 16 16 16 16 16 15 15 14 13 12 12 11 11 11 11 10 10 10 10 10 10 9
13 13 13 12 12 11 11 11 11 11 11 11 12 12 12 12 12 13 14 15 16 16 16 16 16 16 16 15 15 14 13 12 12 11 11 11 11 10 10 10 10 10 9 9
13 13 12 12 11 11 11 11 11 11 11 11 11 12 12 12 12 13 14 14 15 15 16 16 16 16 16 15 15 14 13 12 12 11 11 11 11 10 10 10 10 10 9 9
13 13 12 12 12 11 11 11 11 11 11 11 11 11 11 12 12 12 13 14 14 15 15 16 16 16 16 15 14 14 13 12 12 11 11 11 11 10 10 10 10 10 9 9
13 13 12 12 12 11 11 11 11 11 11 11 11 11 11 12 12 12 12 13 14 15 15 16 16 16 15 15 14 14 13 12 12 11 11 11 11 11 10 10 10 10 9 9
13 13 12 12 12 12 11 11 11 11 11 11 11 11 11 11 12 12 13 13 14 14 15 15 16 16 15 15 14 14 13 12 12 11 11 11 11 11 10 10 10 10 9 9
13 13 13 12 12 12 12 12 11 11 11 11 11 11 11 11 11 12 12 12 13 14 15 15 15 15 15 15 14 14 13 12 12 11 11 11 11 10 10 10 10 10 9 9
13 13 12 12 12 12 12 12 12 12 11 11 11 11 11 11 11 11 12 12 13 13 14 14 15 15 15 15 14 14 13 13 12 11 11 11 10 10 10 10 10 10 9 9
14 13 13 13 13 12 12 12 12 12 12 12 11 11 11 11 11 11 11 12 12 13 13 14 14 15 15 15 14 14 13 13 12 11 11 11 10 10 10 10 10 10 10 9
13 13 13 12 12 12 12 12 12 12 12 12 11 11 11 11 11 11 11 11 12 12 13 13 13 14 14 14 14 14 13 13 12 12 11 11 10 10 10 10 10 10 10 10
Wind_Speed
4 3 6 11 14 14 12 8 5 5 6 12 16 15 14 14 15 15 16 14 13 10 8 8 8 7 6 5 3 4 5 5 4 3 3 3 2 2 2 2 3 3 4 4
2 1 5 11 17 14 11 9 8 8 7 13 14 12 13 15 16 16 15 13 13 12 11 10 10 9 9 8 8 8 8 7 6 6 6 6 5 5 4 3 2 2 3 4
0 4 3 8 11 9 6 8 7 7 8 15 14 15 13 13 15 14 13 11 11 10 9 9 9 8 9 8 8 9 9 9 8 8 7 7 7 6 5 4 3 2 3 3
2 3 4 3 3 4 4 5 8 8 10 13 13 12 7 8 12 13 11 9 9 8 8 8 8 8 8 8 9 9 9 9 8 8 8 7 7 7 6 4 4 3 3 3
3 3 1 2 3 3 3 3 5 8 11 13 15 7 5 10 13 10 8 6 5 5 5 6 8 7 8 8 8 8 8 8 8 7 8 8 8 8 5 5 5 4 4 4
4 4 2 4 3 1 1 2 4 6 9 11 11 8 8 15 15 12 9 5 5 5 6 7 7 7 8 7 8 8 7 6 7 7 7 8 8 6 5 5 5 5 5 5
3 2 3 5 3 1 2 3 6 5 6 6 5 5 10 15 11 8 7 5 5 6 6 6 6 6 7 7 7 6 5 6 7 8 7 7 7 6 6 6 6 7 7 7
3 2 5 4 2 4 5 3 4 5 5 6 7 9 9 9 9 9 8 6 5 5 5 5 5 5 6 6 5 4 5 6 7 7 7 7 8 8 8 8 8 8 7 7
6 6 5 4 5 3 4 3 4 4 6 6 6 7 8 9 9 8 8 6 4 3 5 5 4 4 4 5 3 3 5 5 5 6 7 7 8 9 8 8 8 7 7 7
3 5 5 4 4 3 4 5 6 6 7 5 6 7 8 8 8 8 8 6 5 4 4 5 4 3 2 2 2 3 3 4 4 5 5 6 6 7 7 8 7 7 7 7
4 5 3 5 6 5 4 4 5 5 4 5 6 6 6 7 8 7 7 6 5 4 5 5 4 3 2 0 2 2 2 2 3 3 3 4 4 5 5 5 6 5 5 5
7 8 7 7 6 5 4 3 3 4 5 5 4 6 6 7 6 7 7 6 6 6 6 6 5 4 3 2 2 2 1 2 2 2 2 1 2 3 4 4 7 9 8 6
7 7 7 5 5 5 4 3 2 2 4 5 6 5 6 6 6 7 7 7 7 7 7 6 5 5 4 4 4 3 1 0 1 2 2 1 2 3 3 4 6 8 10 11
6 7 5 5 5 6 5 2 1 2 3 4 5 5 6 6 7 8 8 8 8 8 7 6 6 6 5 5 5 4 2 1 1 1 2 2 2 3 3 4 4 4 7 10
8 7 7 6 6 5 4 2 0 3 5 6 5 6 7 7 8 9 9 8 8 7 6 5 5 6 4 5 6 5 4 2 1 1 2 2 3 3 3 4 4 4 4 6
9 6 7 7 8 7 5 4 3 3 4 5 5 7 8 7 8 8 8 8 8 8 8 7 6 5 3 5 6 5 3 4 3 2 2 3 3 3 3 4 4 4 5 5
12 9 8 8 8 7 6 6 5 4 4 5 6 7 7 7 8 9 9 9 8 8 7 6 7 6 3 6 7 5 4 3 4 3 2 2 2 3 3 3 3 3 4 5
13 13 11 11 9 7 7 5 5 5 4 5 6 6 6 7 8 9 10 10 9 7 6 7 7 6 2 5 6 5 5 4 3 3 3 3 3 3 3 3 3 3 3 4
10 11 11 10 9 8 6 5 5 4 5 5 4 5 6 6 7 8 8 8 8 8 9 11 13 5 1 5 6 5 5 5 4 3 3 4 3 3 3 3 2 2 2 3
10 11 11 10 8 7 6 5 4 4 4 3 3 5 6 7 8 8 7 6 5 5 9 10 8 4 1 4 6 5 5 5 5 4 3 3 3 3 3 2 3 2 2 3
12 11 10 10 8 7 7 5 4 3 3 2 2 4 6 7 7 7 6 6 6 8 9 9 5 4 1 3 6 5 5 5 5 4 4 4 3 3 3 3 3 3 3 3
12 11 11 10 8 7 5 4 4 3 3 3 3 3 5 6 7 7 6 5 7 12 9 6 5 4 3 3 4 4 5 5 4 4 4 4 4 4 3 3 3 3 3 3
11 11 10 10 9 7 5 4 5 4 4 4 4 4 4 5 5 4 6 6 7 12 9 6 7 7 2 4 4 4 5 5 5 4 4 4 4 4 4 4 4 4 4 4
11 10 10 8 7 6 6 6 5 4 4 4 5 5 4 4 5 4 5 10 12 12 7 8 10 5 4 4 4 4 4 5 4 4 4 4 4 4 4 4 4 4 4 5
11 10 9 8 8 7 8 6 4 4 4 4 5 5 4 4 5 5 7 8 11 10 7 8 10 2 3 3 4 4 4 4 5 4 4 4 4 4 4 4 4 5 5 5
10 10 9 10 9 7 6 5 5 4 4 4 4 4 4 4 5 5 5 6 8 9 7 5 5 2 0 2 3 4 4 4 4 4 5 4 5 5 4 5 6 5 5 5
8 7 6 6 6 6 6 6 6 6 6 6 5 5 4 4 4 5 6 5 6 6 6 5 4 3 2 2 3 3 4 4 4 5 5 5 5 5 5 6 5 5 4 5
Wind_Direction
99 74 47 34 23 27 38 35 40 21 14 359 347 345 351 357 3 16 24 29 30 29 27 27 28 26 25 21 37 82 91 79 60 45 34 16 356 329 303 269 241 217 211 212
159 241 37 34 22 22 25 18 18 19 13 344 335 345 358 5 7 12 18 22 26 29 30 30 31 31 38 44 48 63 67 55 38 34 33 21 9 3 353 327 287 233 220 219
320 309 4 20 2 8 22 26 14 10 341 333 343 347 351 358 2 3 5 10 17 21 22 23 26 33 40 42 49 56 55 47 36 32 28 18 14 14 4 346 335 301 263 238
85 54 50 289 299 344 358 30 16 355 343 344 337 320 320 0 1 354 352 356 1 6 12 16 24 31 36 39 44 49 46 40 30 26 22 12 13 8 355 349 344 332 312 282
98 97 96 317 352 358 350 353 358 347 345 346 338 333 350 357 353 339 334 337 344 358 8 16 20 21 38 36 35 39 34 27 18 17 16 11 7 356 350 349 349 343 335 327
100 117 195 253 296 324 216 334 337 341 337 341 355 17 335 331 333 330 334 341 355 3 17 19 7 14 36 29 28 23 16 13 12 16 18 12 2 356 351 352 354 359 7 6
102 134 251 248 279 126 141 264 307 316 315 325 335 272 286 308 320 326 330 341 2 13 13 0 356 16 28 22 13 358 9 22 23 19 19 16 11 10 8 12 21 26 27 22
135 151 243 236 150 170 210 249 283 289 294 301 295 294 306 322 336 344 344 343 358 4 354 347 357 16 19 6 348 7 30 35 29 24 25 22 23 22 22 23 29 27 27 27
186 209 232 213 206 220 195 236 267 272 290 300 303 315 326 331 339 342 342 336 339 345 337 340 354 12 11 345 1 43 45 36 27 27 29 27 30 26 24 24 27 25 25 24
209 251 235 228 240 250 221 229 257 271 285 294 304 313 324 331 337 340 338 335 331 332 328 323 332 349 342 344 67 75 50 28 21 26 29 30 32 30 29 24 21 21 21 16
217 243 231 249 234 239 246 255 277 298 296 303 312 318 319 323 325 327 327 323 322 305 290 288 298 307 301 221 131 92 48 18 14 22 31 35 37 33 29 29 23 21 16 12
207 203 183 214 219 216 222 253 283 308 323 327 321 312 316 315 313 317 319 319 319 306 285 279 276 272 263 223 185 159 32 1 358 1 17 37 31 25 28 27 28 35 34 28
189 172 174 190 193 199 205 231 258 287 305 312 317 311 314 309 308 315 317 320 315 302 287 277 268 261 250 211 189 184 184 293 358 11 22 34 47 45 24 6 21 32 28 28
154 131 150 183 192 197 197 208 259 317 316 309 306 313 317 314 313 319 318 314 309 302 291 277 263 259 243 197 180 175 167 156 100 37 38 52 67 69 58 42 20 359 3 21
173 167 170 176 178 180 179 182 257 319 321 323 319 322 325 325 320 315 313 315 317 315 309 299 280 272 236 185 174 170 164 162 122 87 75 79 79 75 63 55 44 18 8 10
169 158 152 159 178 186 187 198 227 278 299 305 311 317 317 313 310 312 317 326 330 320 315 310 298 291 236 179 166 162 169 175 146 117 97 92 83 78 69 60 48 37 29 10
151 167 177 185 194 199 204 210 222 249 277 291 301 309 318 326 331 332 330 328 317 303 303 310 307 304 240 176 165 161 157 152 137 114 111 115 106 99 92 81 65 51 32 26
178 182 179 181 186 198 214 226 237 252 262 279 301 317 330 334 328 323 324 326 331 335 339 335 325 314 240 171 161 154 149 144 138 136 130 124 122 121 115 104 89 74 45 43
174 171 176 182 184 186 201 223 240 257 278 290 307 316 313 314 315 316 323 334 343 342 334 333 332 336 237 177 155 147 147 146 141 136 135 133 124 125 129 128 119 105 90 75
173 172 175 183 185 184 198 218 234 259 277 286 307 321 324 322 323 324 327 323 305 294 306 318 328 331 280 176 154 148 151 152 152 149 145 145 147 149 151 149 145 135 120 108
174 173 176 182 189 195 200 203 211 246 275 290 296 305 307 310 318 324 328 322 312 320 323 325 333 327 278 178 156 150 153 155 158 162 165 165 162 161 163 163 158 153 144 133
175 176 180 181 183 193 202 196 203 226 256 279 293 306 316 319 323 322 303 277 298 321 326 316 317 311 278 176 159 158 160 161 162 163 168 172 174 176 178 174 167 159 152 147
177 178 179 182 186 192 193 199 206 211 231 251 270 287 293 292 292 296 308 306 312 320 322 305 308 312 246 159 163 167 167 169 172 176 180 182 184 183 182 178 171 163 157 153
177 180 183 181 166 169 199 220 214 216 228 248 257 261 266 290 300 275 271 303 318 321 317 314 323 316 154 150 163 171 175 178 180 182 182 181 182 182 178 172 169 166 161 157
180 178 173 168 177 197 210 210 209 224 232 250 269 270 257 237 252 283 300 309 322 331 328 331 342 2 139 154 168 179 186 189 186 181 183 183 186 185 181 176 174 170 165 163
183 186 189 193 196 196 191 186 199 216 214 239 266 268 268 269 272 283 298 313 326 334 335 330 337 351 177 183 184 187 191 196 193 188 191 191 190 185 182 182 179 174 169 165
188 187 186 196 205 196 186 187 201 215 211 211 235 252 258 276 290 302 312 319 327 330 330 330 329 319 280 234 211 198 192 192 192 192 192 192 189 190 189 185 179 172 163 160
Height
1553 1550 1548 1547 1544 1539 1537 1537 1538 1538 1536 1535 1531 1527 1522 1516 1510 1505 1501 1498 1495 1493 1492 1491 1490 1490 1489 1489 1490 1491 1493 1494 1496 1496 1497 1498 1499 1500 1500 1501 1501 1501 1502 1502
1553 1550 1548 1550 1549 1546 1544 1543 1542 1539 1540 1538 1533 1528 1523 1519 1514 1510 1506 1504 1501 1498 1496 1494 1493 1492 1491 1491 1491 1492 1493 1493 1494 1495 1495 1496 1496 1497 1497 1498 1498 1499 1499 1499
1557 1552 1551 1558 1557 1554 1552 1551 1549 1548 1548 1540 1534 1529 1526 1523 1518 1515 1512 1509 1507 1504 1502 1499 1497 1496 1494 1494 1494 1493 1493 1494 1494 1494 1494 1494 1494 1494 1494 1494 1494 1495 1495 1496
1560 1557 1564 1565 1556 1556 1554 1553 1552 1550 1547 1542 1538 1532 1529 1527 1523 1520 1517 1515 1512 1510 1507 1505 1503 1501 1500 1498 1497 1496 1495 1494 1494 1493 1493 1492 1492 1491 1491 1490 1490 1490 1491 1492
1563 1564 1563 1560 1557 1557 1557 1555 1553 1550 1547 1542 1537 1532 1530 1528 1525 1523 1522 1520 1518 1515 1513 1510 1508 1506 1504 1502 1501 1499 1497 1496 1495 1494 1493 1492 1491 1489 1488 1487 1487 1486 1487 1487
1564 1563 1565 1562 1556 1556 1558 1555 1553 1550 1548 1544 1540 1539 1536 1530 1527 1525 1524 1523 1521 1519 1517 1514 1512 1510 1508 1506 1504 1502 1501 1499 1498 1496 1494 1493 1491 1489 1488 1486 1485 1485 1484 1485
1566 1565 1563 1557 1555 1556 1561 1559 1552 1550 1548 1546 1544 1544 1539 1533 1530 1528 1527 1526 1524 1522 1520 1518 1515 1514 1512 1510 1508 1506 1505 1503 1501 1499 1497 1495 1493 1491 1489 1488 1486 1485 1484 1484
1567 1566 1565 1553 1554 1556 1556 1553 1551 1550 1548 1546 1544 1541 1537 1534 1532 1530 1529 1528 1526 1525 1523 1521 1519 1517 1515 1513 1511 1509 1508 1506 1504 1502 1500 1498 1496 1494 1492 1490 1488 1487 1485 1484
1560 1560 1552 1551 1551 1551 1551 1551 1550 1549 1548 1546 1543 1540 1538 1535 1533 1531 1530 1529 1528 1527 1526 1524 1522 1520 1518 1516 1514 1513 1511 1509 1507 1505 1503 1501 1499 1497 1495 1493 1491 1489 1487 1486
1553 1551 1549 1550 1550 1550 1550 1550 1549 1548 1547 1545 1543 1541 1538 1536 1534 1532 1531 1530 1529 1528 1527 1526 1525 1523 1521 1519 1517 1515 1514 1512 1510 1508 1506 1504 1502 1500 1497 1495 1493 1492 1490 1489
1550 1548 1548 1548 1548 1549 1549 1549 1548 1547 1546 1545 1543 1541 1538 1536 1534 1533 1531 1530 1529 1529 1528 1527 1526 1524 1523 1521 1519 1517 1516 1514 1512 1510 1508 1506 1504 1502 1500 1498 1496 1494 1493 1491
1544 1541 1543 1544 1546 1547 1548 1548 1547 1547 1545 1544 1542 1540 1538 1536 1534 1533 1531 1530 1529 1528 1528 1527 1526 1525 1524 1522 1520 1519 1517 1515 1513 1511 1509 1508 1506 1504 1502 1500 1498 1496 1495 1494
1535 1537 1540 1542 1544 1545 1546 1546 1546 1546 1545 1543 1542 1540 1538 1536 1534 1532 1531 1529 1528 1527 1527 1526 1525 1524 1523 1522 1520 1519 1517 1516 1514 1512 1511 1509 1507 1506 1504 1502 1500 1499 1498 1496
1533 1536 1538 1540 1542 1544 1545 1545 1545 1545 1544 1543 1541 1539 1537 1535 1533 1532 1530 1529 1527 1526 1525 1524 1524 1523 1522 1521 1520 1519 1518 1516 1515 1514 1512 1511 1509 1508 1506 1504 1503 1502 1501 1499
1531 1534 1536 1538 1541 1542 1543 1544 1544 1543 1543 1542 1540 1539 1536 1534 1532 1531 1529 1527 1526 1525 1524 1523 1522 1522 1521 1520 1519 1518 1517 1516 1515 1514 1513 1512 1511 1510 1508 1507 1505 1504 1504 1503
1529 1532 1535 1537 1538 1540 1541 1542 1542 1542 1541 1540 1539 1537 1535 1533 1531 1529 1528 1526 1525 1524 1522 1521 1521 1520 1519 1519 1518 1517 1517 1516 1515 1515 1514 1513 1512 1511 1510 1509 1508 1507 1506 1505
1525 1529 1532 1534 1536 1538 1539 1540 1540 1540 1540 1539 1538 1536 1534 1532 1530 1528 1526 1525 1524 1522 1521 1520 1519 1518 1518 1517 1517 1516 1516 1516 1515 1515 1514 1514 1514 1513 1512 1512 1511 1510 1509 1508
1522 1525 1528 1531 1533 1535 1536 1537 1538 1538 1538 1537 1536 1535 1532 1530 1528 1526 1525 1523 1523 1522 1520 1519 1518 1517 1517 1516 1516 1516 1515 1515 1515 1515 1515 1515 1514 1514 1514 1513 1513 1512 1511 1511
1519 1523 1527 1529 1531 1533 1534 1535 1535 1536 1536 1535 1534 1533 1531 1529 1527 1525 1523 1522 1521 1520 1520 1518 1517 1516 1516 1515 1515 1515 1515 1515 1515 1515 1515 1515 1515 1515 1515 1515 1514 1514 1513 1512
1516 1521 1524 1526 1528 1530 1531 1532 1533 1534 1534 1533 1532 1531 1530 1528 1526 1524 1522 1521 1520 1519 1518 1517 1516 1515 1515 1515 1514 1514 1514 1514 1514 1515 1515 1515 1515 1515 1515 1515 1515 1515 1514 1513
1513 1517 1521 1523 1525 1527 1529 1530 1531 1531 1531 1531 1530 1529 1528 1526 1524 1522 1520 1519 1519 1518 1517 1516 1515 1514 1514 1514 1514 1514 1514 1514 1514 1514 1514 1515 1515 1515 1515 1515 1515 1515 1514 1513
1510 1514 1518 1520 1523 1524 1526 1527 1528 1529 1529 1529 1528 1527 1526 1524 1523 1521 1519 1518 1517 1516 1515 1514 1514 1513 1513 1513 1513 1513 1513 1513 1513 1513 1514 1514 1514 1515 1515 1515 1515 1514 1514 1513
1507 1511 1515 1518 1520 1522 1524 1525 1526 1526 1526 1526 1526 1525 1524 1523 1521 1519 1517 1516 1514 1513 1513 1512 1512 1511 1512 1512 1512 1512 1512 1512 1512 1513 1513 1513 1514 1514 1514 1514 1514 1513 1513 1512
1505 1509 1512 1515 1518 1519 1520 1522 1523 1524 1524 1524 1524 1523 1522 1521 1520 1518 1516 1514 1512 1511 1510 1510 1509 1509 1510 1510 1511 1511 1511 1511 1512 1512 1512 1512 1513 1513 1513 1513 1513 1513 1512 1511
1502 1506 1509 1511 1513 1515 1518 1519 1520 1521 1521 1521 1521 1520 1520 1519 1517 1516 1514 1512 1510 1509 1508 1507 1507 1507 1508 1508 1509 1509 1510 1510 1511 1511 1511 1511 1512 1512 1512 1512 1512 1512 1511 1511
1498 1501 1504 1507 1510 1513 1515 1516 1517 1518 1518 1518 1519 1518 1517 1517 1515 1514 1513 1511 1509 1507 1506 1505 1504 1505 1505 1506 1507 1508 1508 1509 1509 1510 1510 1510 1510 1510 1511 1511 1511 1510 1510 1510
1495 1498 1501 1503 1506 1508 1510 1512 1513 1514 1515 1515 1515 1515 1515 1514 1513 1512 1511 1509 1507 1505 1504 1503 1502 1502 1502 1503 1504 1505 1506 1507 1507 1508 1508 1508 1508 1509 1509 1509 1509 1509 1509 1508